Regional Weather Roundup
Issued by NWS

Home | Current Version | Previous Version | Text Only | Print | Product List | Glossary Off
Versions: 1 2 3 4 5 6 7 8 9 10 11 12 13 14 15 16 17 18 19 20 21 22 23 24 25 26 27 28 29 30 31 32 33 34 35 36 37 38 39 40 41 42 43 44 45 46 47 48 49 50

000
ASUS43 KLMK 171302
RWRKY
KENTUCKY REGIONAL WEATHER ROUNDUP
NATIONAL WEATHER SERVICE LOUISVILLE KY
900 AM EDT THU APR 17 2014

NOTE "FAIR" INDICATES FEW OR NO CLOUDS BELOW 12,000 FEET
WITH NO SIGNIFICANT WEATHER AND/OR OBSTRUCTIONS TO VISIBILITY.

KYZ001>023-026-027-061>063-070>075-171400-
WESTERN AND SOUTH CENTRAL KENTUCKY

CITY           SKY/WX    TMP DP  RH WIND       PRES   REMARKS
PADUCAH        SUNNY     51  35  54 S9        30.29R
HENDERSON      SUNNY     48  36  61 S8        30.30R
OWENSBORO      SUNNY     50  38  63 S12       30.32R
HOPKINSVILLE   SUNNY     54  32  43 S8        30.32R
BOWLING GREEN  SUNNY     51  32  48 S9        30.36R
GLASGOW        NOT AVBL
$$

KYZ024-025-028>034-038-045-046-053-171400-
NORTH CENTRAL KENTUCKY

CITY           SKY/WX    TMP DP  RH WIND       PRES   REMARKS
LOUISVILLE/SDF MOSUNNY   51  32  48 S12       30.33R
LOUISVILLE/LOU SUNNY     52  32  46 S8        30.34R
FORT KNOX      SUNNY     49  33  54 S12       30.32R
$$

KYZ035>037-039>044-047>052-055>060-089>105-171400-
NORTHEAST KENTUCKY

CITY           SKY/WX    TMP DP  RH WIND       PRES   REMARKS
LEXINGTON      SUNNY     50  30  46 S13       30.36R
COVINGTON      MOSUNNY   47  29  49 S10       30.34R
FRANKFORT      MOSUNNY   47  33  58 S7        30.35R
$$

KYZ054-064>069-076>088-106>120-171400-
SOUTHEAST KENTUCKY

CITY           SKY/WX    TMP DP  RH WIND       PRES   REMARKS
JACKSON        PTSUNNY   46  23  40 S3        30.40R
LONDON         MOSUNNY   45  28  51 SE3       30.40R
SOMERSET       NOT AVBL
MIDDLESBORO    NOT AVBL
MONTICELLO     MOSUNNY   49  31  50 S8        30.39R
$$




USA.gov is the U.S. government's official web portal to all federal, state and local government web resources and services.